Location: Dover
(48.8500°N, 53.9833°W)
Time: 16:58:25
(UTC+00:00)

Cosmos 2195 Rocket - Pass Details

Date: 14 November 2025
Orbit: 949 x 991 km, 82.9° (Epoch: 10 December)

Event Time Altitude Azimuth Distance (km) Brightness Sun altitude
Rises 22:28:05 0° 351° (N) 3,693 7.6 -24.8°
Reaches altitude 10° 22:30:37 10° 353° (N) 2,747 6.9 -25.3°
Maximum altitude 22:36:57 79° 80° (E) 1,011 4.3 -26.3°
Enters shadow 22:40:19 30° 164° (SSE) 1,704 5.6 -26.9°
